Location: Pinawa
(50.1500°N, 95.8830°W)
Time: 08:01:46
(UTC-05:00)

Daily predictions for brighter satellites

Satellite Brightness Start Highest point End
(mag) Time Altitude Azimuth Time Altitude Azimuth Time Altitude Azimuth
Cosmos 2322 Rocket 4.4 21:56:06 10° N 21:59:39 16° NNE 22:03:12 10° ENE
Okean 2 3.7 21:56:30 10° SSE 22:00:25 47° E 22:04:22 10° NNE
Lacrosse 5 rocket 3.2 21:56:43 10° WNW 22:00:57 35° N 22:05:14 10° ENE
Cosmos 1441 Rocket 3.1 21:58:24 10° S 22:02:08 86° E 22:05:55 10° NNE
ARGOS 3.3 21:59:34 10° SSE 22:04:56 65° ENE 22:10:20 10° N
Meteor 1-29 3.6 22:02:36 10° N 22:05:57 60° WNW 22:09:16 10° SSW
Resurs 01 Rocket 4.4 22:05:27 10° WSW 22:07:56 15° W 22:10:25 10° NW
ERS-1 Rocket 3.2 22:03:22 10° S 22:08:23 73° WSW 22:13:27 10° NNW
Meteor 1-23 Rocket 4.2 22:03:31 10° S 22:09:04 77° E 22:14:44 10° NNE
NOAA 11 4.3 22:06:54 10° SSE 22:12:21 85° WSW 22:17:50 10° NNW
Terra 3.1 22:08:27 10° ESE 22:12:28 28° ENE 22:16:31 10° N
SPOT 5 2.6 22:10:03 10° SSE 22:14:21 72° ENE 22:18:46 10° N
H-2A R/B 3.4 22:15:25 10° ESE 22:19:21 29° ENE 22:23:16 10° N
Nadezhda 1 Rocket 4.4 22:18:00 10° SSW 22:24:21 72° WNW 22:30:47 10° N
MetOp-B 4.4 22:19:25 10° S 22:24:46 74° WSW 22:30:10 10° NNW
Cosmos 2278 3.8 22:19:54 10° NNW 22:25:39 83° WSW 22:31:15 10° SSE
ATLAS CENTAUR R/B 3.6 22:23:19 10° NNW 22:25:43 16° NNE 22:28:04 10° ENE
COSMOS 2406 4.0 22:21:57 10° SW 22:27:35 57° NW 22:33:14 10° NNE
Cosmos 2082 Rocket 2.9 22:24:56 10° SSE 22:29:56 33° ESE 22:34:55 10° NE
USA 229 DEB 4.2 22:24:46 10° NW 22:31:48 61° NE 22:38:57 10° ESE
USA 229 4.2 22:24:52 10° NW 22:31:54 60° NE 22:39:03 10° ESE
SL-8 Rocket 4.1 22:26:10 10° N 22:32:24 66° ENE 22:38:28 11° SSE
MOS 1-B Rocket 4.4 22:27:36 10° S 22:33:27 67° WSW 22:40:09 10° NNW
ISS -3.7 22:30:28 10° SW 22:33:42 55° SSE 22:36:56 10° ENE
Cosmos 2366 rocket 4.2 22:32:05 10° N 22:38:09 55° ENE 22:43:33 13° SSE
SL-24 DEB 4.3 22:36:11 10° S 22:40:48 89° W 22:45:29 10° N
Cosmos 2228 3.0 22:38:03 10° N 22:42:24 88° ENE 22:46:19 12° S
SL-27 R/B 4.3 22:40:21 10° SW 22:43:44 35° WNW 22:47:07 10° N
H-2A R/B 2.0 22:40:27 12° SSE 22:45:08 88° ENE 22:50:16 10° NNW
Cosmos 921 Rocket 3.6 22:40:46 10° NNW 22:45:11 55° WSW 22:49:22 11° S
Cosmos 2369 4.1 22:39:46 10° NW 22:45:26 61° WSW 22:50:41 12° S
USA 234 4.2 22:39:13 10° ENE 22:45:29 50° N 22:51:44 10° WNW
Meteor 1-4 Rocket 2.6 22:42:32 10° N 22:46:08 62° ENE 22:48:46 17° SSE
Cosmos 1697 Rocket 2.7 22:40:34 10° NNW 22:46:13 78° ENE 22:50:57 15° SE
SL-16 R/B 3.7 22:47:13 10° NNW 22:52:05 28° NE 22:56:55 10° ESE
Cosmos 1656 3.8 22:48:02 10° NNW 22:53:28 71° WSW 22:58:04 15° SSE
SL-08 RB Rocket 4.2 22:50:33 10° S 22:54:57 57° W 22:59:24 10° NNW
Cosmos 967 Rocket 4.4 22:49:25 10° SSW 22:55:40 77° SE 23:01:59 10° NE
Cosmos 1892 Rocket 3.9 22:53:51 10° SSW 22:58:16 70° WNW 23:02:41 10° N
DMSP B5D2-2 4.3 22:56:47 10° NNE 23:02:01 56° E 23:06:34 13° S
Cosmos 1271 Rocket 3.5 22:58:34 10° N 23:02:15 39° ENE 23:04:38 19° SE
Cosmos 1602 Rocket 3.8 23:01:03 17° SSE 23:04:10 49° E 23:08:21 10° NNE
Cosmos 1833 Rocket 2.8 23:01:30 10° S 23:06:58 56° ESE 23:12:29 10° NE
deb Chang Zheng 4 4.1 23:05:00 10° NNE 23:09:05 40° E 23:11:40 20° SSE
SL-08 R/B 4.5 23:06:22 10° N 23:12:32 88° W 23:17:35 16° S
NOSS 8 (E) 4.5 23:10:24 10° SW 23:13:52 75° SE 23:17:53 10° NE
Timation 2 Rocket 4.3 23:08:52 12° S 23:14:17 44° ESE 23:20:03 10° NE
Cosmos 389 Rocket 3.9 23:13:22 10° N 23:16:20 25° ENE 23:17:59 18° ESE
Cosmos 1953 3.5 23:13:09 10° N 23:16:49 31° ENE 23:19:02 19° ESE
Cosmos 1420 Rocket 4.1 23:12:26 10° NNW 23:17:44 76° WSW 23:21:26 20° SSE
Cosmos 2218 Rocket 4.2 23:12:39 10° NNW 23:18:47 72° W 23:24:06 14° S
Meteor 2-14 Rocket 4.4 23:15:12 10° N 23:21:20 86° E 23:25:53 19° S
Cosmos 1066 Rocket 4.2 23:16:16 10° SSW 23:21:48 85° WNW 23:27:31 10° NNE
COSMOS 2487 3.0 23:18:27 10° SW 23:21:59 60° WNW 23:25:32 10° NNE
Cosmos 1048 Rocket 4.3 23:22:41 19° S 23:26:02 46° ESE 23:30:59 10° NNE
CARTOSAT-1 3.8 23:27:22 20° S 23:30:17 63° WSW 23:34:35 10° NNW
Cosmos 1452 Rocket 4.4 23:26:36 10° NW 23:31:32 41° WSW 23:35:24 16° SSW
Cosmos 2360 Rocket 3.9 23:28:03 10° NNW 23:32:45 25° NE 23:37:23 10° E
Cosmos 1766 3.3 23:28:53 10° NNW 23:32:48 74° W 23:35:01 24° S
Tiangong 2 2.9 23:31:38 10° WSW 23:33:11 18° SSW 23:33:11 18° SSW
Cosmos 1544 3.0 23:30:39 10° N 23:34:16 71° ENE 23:35:56 30° SSE
Cosmos 1980 Rocket 2.2 23:28:48 10° NNW 23:34:29 78° WSW 23:38:08 23° SSE
Lacrosse 5 rocket 2.1 23:36:18 10° NW 23:40:54 58° NNE 23:45:13 12° ESE
Meteor 1-21 4.2 23:39:12 19° S 23:43:20 76° E 23:49:07 10° NNE
Cosmos 2322 Rocket 2.7 23:39:24 10° NNW 23:45:02 55° NE 23:48:59 19° SE
SME Rocket 3.7 23:43:00 22° SE 23:45:54 50° ENE 23:49:45 10° N
Cosmos 1470 3.7 23:45:04 10° N 23:48:49 37° ENE 23:50:32 25° ESE
Terra 2.6 23:46:49 18° SSW 23:50:02 44° W 23:54:37 10° NNW
USA 267 4.0 23:44:53 10° ENE 23:50:27 29° SE 23:52:59 23° SSE
Nadezhda 3 Rocket 4.1 23:46:50 21° S 23:51:11 70° E 23:57:30 10° NNE
Cosmos 1758 Rocket 4.2 23:50:40 27° SE 23:52:22 40° E 23:56:27 10° NNE
Cosmos 1812 Rocket 4.2 23:48:37 10° NNW 23:52:58 50° W 23:55:42 21° SSW
H-2A R/B 3.2 23:52:19 18° SSW 23:55:13 39° W 23:59:29 10° NNW
PSLV R/B 4.3 23:56:05 25° SW 23:56:56 30° W 23:59:29 10° NNW
